{"data":{"norad_id":58684,"intl_designator":"2023-211T","name":"STARLINK-31107","alt_names":[],"object_type":"PAYLOAD","status":"ACTIVE","operator":null,"country":"US","launch_date":"2023-12-29","launch_site_code":"AFETR","launch_vehicle":null,"mission":null,"orbit_class":"UNKNOWN","rcs_meters":null,"size_class":null,"mass_kg":null,"dimensions":null,"purposes":["comms"],"wikipedia_slug":null,"has_3d_model":false,"image_url":null,"decayed_at":null,"tle_current":{"epoch":"2026-09-20T04:08:16.821024Z","epoch_age_seconds":178001,"freshness":"STALE","line1":"1 58684U 23211T   26263.17241691 -.00000625  00000+0 -13207-4 0  9991","line2":"2 58684  43.0046  67.3327 0001166 271.1639  88.9079 15.27576103152209","mean_motion":15.27576103,"eccentricity":0.0001166,"inclination_deg":43.0046,"raan_deg":67.3327,"arg_perigee_deg":271.1639,"mean_anomaly_deg":88.9079,"bstar":-1.3207e-5,"rev_number":15220,"period_min":94.266989197592,"perigee_km":482.26074942499,"apogee_km":483.86078074381,"semimajor_km":6861.1977650844,"source":"CELESTRAK","updated_at":"2026-09-21T09:00:33.945668Z"}}}